Miscellaneous Local Product
Issued by NWS North Platte, NE

Home | Current Version | Previous Version | Graphics & Text | Print | Product List | Glossary On
Versions: 1 2 3 4 5 6 7 8 9 10 11 12 13 14 15 16 17 18 19 20 21 22 23 24 25 26 27 28 29 30 31 32 33 34 35 36 37 38 39 40 41 42 43 44 45 46 47 48 49 50
104
AXUS43 KLBF 080310
MISLBF


WESTERN AND NORTH CENTRAL NEBRASKA HOURLY WEATHER ROUNDUP
NATIONAL WEATHER SERVICE NORTH PLATTE NE
900 PM CST SUN FEB 07 2016

NOTE: "FAIR" INDICATES FEW OR NO CLOUDS BELOW 12,000 FEET WITH NO
SIGNIFICANT WEATHER AND/OR OBSTRUCTIONS TO VISIBILITY.

NOTE: STATIONS NOT REPORTING VARIABLES SUCH AS SKY/WEATHER OR
PRESSURE ARE PROVIDED BY THE NEBRASKA DEPARTMENT OF
ROADS...RAWS...AND APRS NETWORKS...AND ARE NOT UNDER
NATIONAL WEATHER SERVICE QUALITY CONTROL.

...OBSERVATIONS IN AND NEAR THE EASTERN PANHANDLE OF NEBRASKA...

CITY           SKY/WX    TMP DP  RH WIND       PRES   REMARKS
PINE RIDGE     CLEAR     30   7  37 NW15      30.27R WCI  19
CHADRON        CLEAR     29  15  56 W21       30.31S WCI  16
ALLIANCE       CLEAR     26  12  55 NW24      30.27S WCI  11
SIDNEY         CLEAR     27  13  55 NW26      30.32R WCI  12
BIG SPRINGS      N/A     28  18  66 NW10        N/A  WCI  19
$$

...OBSERVATIONS IN NORTH CENTRAL NEBRASKA...

CITY           SKY/WX    TMP DP  RH WIND       PRES   REMARKS
VALENTINE      CLOUDY    33  18  53 NW30G47   30.17R WCI  19
THEDFORD       CLEAR     33  15  48 NW20G32   30.19R WCI  21
AINSWORTH      CLOUDY    33  18  54 NW30G40   30.16R WCI  18
O`NEILL        MOCLDY    33  17  53 NW29G39   30.09S WCI  19
ORD            CLEAR     33  17  51 NW28G36   30.11R WCI  20
BROKEN BOW     CLEAR     33  17  51 N24G39    30.14R WCI  20
BUTTE            N/A     32  18  56 W28G49      N/A  WCI  18
CHAMBERS         N/A     32  15  49 N18         N/A  WCI  20
EWING            N/A     33  20  59 NW15G28     N/A  WCI  23
$$

...OBSERVATIONS IN SOUTHWEST NEBRASKA AND FAR NORTHEAST COLORADO...

CITY           SKY/WX    TMP DP  RH WIND       PRES   REMARKS
WRAY           FAIR      31  15  52 NW24G31   30.31R WCI  18
HOLYOKE        FAIR      30  16  55 NW17G23   30.31R WCI  18
IMPERIAL       CLEAR     29  14  53 NW18G28   30.28S WCI  16
OGALLALA       CLEAR     29  15  55 NW25G31   30.27R WCI  15
NORTH PLATTE   CLEAR     27  15  61 NW14      30.21R WCI  16
MCCOOK         CLEAR     31  18  58 NW23G32   30.24R WCI  18
LEXINGTON      CLEAR     32  15  48 NW17      30.19R WCI  21
PAXTON           N/A     32  20  61 W6          N/A  WCI  26
STAPLETON        N/A     30  15  52 W3G13       N/A
GOTHENBURG       N/A     32  16  50 W10         N/A  WCI  24
CALLAWAY         N/A     31  16  53 NW14        N/A  WCI  21
$$

...OBSERVATIONS IN CENTRAL LINCOLN COUNTY AREA...

CITY           SKY/WX    TMP DP  RH WIND       PRES   REMARKS
N.P. AIRPORT   CLEAR     27  15  61 NW14      30.21R WCI  16
N.P. DOWNTOWN    N/A     31  18  58 NW8G15      N/A  WCI  24
N.P. SOUTHEAST   N/A     31  17  55 N7G15       N/A  WCI  24
N.P. HILLCREST   N/A     29  18  62 NW12        N/A  WCI  19
$$

...SOME OBSERVATIONS FROM AROUND THE REGION...

CITY           SKY/WX    TMP DP  RH WIND       PRES   REMARKS
DENVER         CLOUDY    17  13  84 SE13      30.36R WCI   4
LARAMIE          N/A     16  10  77 NE13      30.32R WCI   2
CHEYENNE       CLEAR     20  13  74 N15       30.32R WCI   6
SCOTTSBLUFF    CLOUDY    27  14  58 NW15      30.36R WCI  15
RAPID CITY     CLEAR     32  10  40 NW32G40   30.25S WCI  17
BISMARCK       MOCLDY    33  19  56 N29G41    30.13R WCI  19
PIERRE         CLEAR     33  16  49 NW21G32   30.14R WCI  21
WINNER         FAIR      31  17  56 NW23G31   30.15R WCI  18
SIOUX FALLS    LGT SNOW  25  19  78 N28       29.95S WCI   9
OMAHA          MIX PCPN  34  28  79 NW16G25   29.98S WCI  24
GRAND ISLAND   CLOUDY    35  20  54 NW25G32   30.12R WCI  23
KANSAS CITY    CLOUDY    38  27  64 NW18G31   30.01F WCI  28
WICHITA        CLEAR     40  21  46 NW18G26   30.18S WCI  31
OKLAHOMA CITY  PTCLDY    46  22  38 NW20G25   30.24R
LIBERAL        CLOUDY    36  12  38 NW13      30.36R WCI  27
HAYS           CLEAR     36  16  44 NW22      30.23R WCI  24
GOODLAND       CLOUDY    30  17  58 NW18G28   30.31R WCI  18
$$




USA.gov is the U.S. government's official web portal to all federal, state and local government web resources and services.